Location: Toronto
(43.6667°N, 79.4167°W)
Time: 11:19:09
(UTC-04:00)

X-37B - Pass Details

Date: 20 June 2021
Orbit: 383 x 392 km, 45.0° (Epoch: 01 July)

Event Time Altitude Azimuth Distance (km) Brightness Sun altitude
Exits shadow 02:37:52 65° 1° (N) 425 0.9 -20.5°
Maximum altitude 02:37:52 65° 1° (N) 425 0.9 -20.5°
Drops below altitude 10° 02:41:01 10° 85° (E) 1,406 3.7 -20.3°
Sets 02:43:06 0° 88° (E) 2,261 4.8 -20.2°
